Terug naar catalogus

STARLINK-30445

ActiefCommunicatieVLEO
NORAD 57873·PAYLOAD·🇺🇸 United States

Gelanceerd Sep 16, 2023 vanaf Cape Canaveral Space Force Station

Loading…

Volgende Passages (komende 24 uur)

TLE

VersSource: CelesTrak SupGP

Epoch: Sep 15, 2026, 01:32 UTC

1 57873C 23144K   26258.06437500  .00030167  00000+0  10925-2 0  2585
2 57873  43.0029 295.8080 0001624 271.7195 274.2463 15.27567364    12

Volg STARLINK-30445 in realtime met AllMySat

Download on the App Store